Volver al catálogo

ONEWEB-0052

ActivoComunicacionesPO
NORAD 45156·PAYLOAD·🇬🇧 United Kingdom

Lanzado Feb 6, 2020 desde Baikonur Cosmodrome

Loading…

Próximos Pases (próximas 24 horas)

TLE

ActualizadoSource: CelesTrak SupGP

Época: Sep 14, 2026, 18:12 UTC

1 45156C 20008AB  26257.75848796  .00002781  00000+0  79771-2 0  2574
2 45156  87.8900  18.4318 0001874 113.8173 356.0012 13.10366368    19

Sigue ONEWEB-0052 en tiempo real con AllMySat

Download on the App Store